Temperature
2 2 2 2 1 1 1 2 3 4 4 4 3 2 1 -0 -1 -2 -2 -2 -2 -2 -2 -3 -3 -3 -3 -3 -3 -3 -3 -3 -3 -3 -3 -3 -3 -3 -3 -3 -3 -3 -3 -3
1 1 0 0 1 1 1 1 1 2 2 2 1 -0 -1 -1 -2 -3 -3 -3 -3 -3 -3 -3 -3 -3 -4 -4 -4 -4 -4 -3 -3 -3 -3 -3 -4 -4 -4 -4 -4 -4 -4 -4
2 0 -0 2 1 0 0 -0 0 1 2 1 -0 -1 -2 -2 -3 -4 -4 -4 -4 -4 -4 -4 -4 -4 -4 -4 -4 -4 -4 -4 -4 -4 -4 -4 -5 -5 -5 -5 -5 -5 -5 -5
1 0 1 3 -0 -0 -0 -1 -1 -1 -1 -1 -2 -3 -3 -3 -4 -4 -4 -4 -4 -5 -5 -5 -5 -5 -5 -5 -5 -5 -5 -5 -5 -5 -5 -5 -6 -6 -6 -6 -6 -6 -6 -6
0 1 2 2 -1 -2 -2 -1 -2 -2 -2 -3 -4 -4 -3 -4 -4 -4 -5 -5 -5 -5 -6 -6 -6 -6 -6 -6 -6 -6 -6 -6 -6 -6 -6 -6 -6 -6 -7 -7 -7 -7 -7 -7
-0 1 2 3 -2 -4 -2 -0 -2 -3 -3 -4 -5 -2 -1 -4 -5 -5 -5 -6 -6 -6 -6 -6 -7 -7 -7 -7 -7 -7 -7 -7 -7 -7 -7 -7 -7 -7 -8 -8 -8 -8 -8 -7
-1 0 2 -1 -5 -4 -0 1 -3 -4 -5 -5 -5 -4 -5 -5 -6 -6 -6 -6 -7 -7 -7 -7 -8 -8 -8 -8 -8 -8 -8 -8 -8 -8 -8 -8 -8 -8 -8 -8 -9 -8 -8 -8
-1 -0 1 -5 -5 -3 -2 -4 -5 -5 -5 -5 -6 -6 -6 -7 -7 -7 -7 -7 -7 -8 -8 -8 -8 -9 -9 -9 -9 -9 -9 -9 -9 -9 -9 -9 -9 -9 -9 -9 -9 -9 -9 -9
-2 -1 -4 -6 -5 -5 -5 -5 -5 -6 -6 -6 -7 -7 -7 -8 -8 -8 -8 -8 -9 -9 -9 -9 -9 -9 -9 -9 -10 -10 -10 -10 -9 -9 -10 -10 -10 -10 -10 -10 -10 -10 -10 -10
-4 -4 -5 -6 -6 -5 -5 -6 -6 -6 -7 -7 -8 -8 -8 -8 -9 -9 -9 -9 -9 -9 -10 -10 -10 -10 -10 -10 -10 -11 -11 -10 -10 -10 -10 -10 -11 -11 -11 -11 -11 -11 -11 -11
-5 -5 -6 -6 -6 -6 -6 -6 -7 -7 -7 -8 -8 -9 -9 -9 -9 -9 -10 -10 -10 -10 -10 -10 -11 -11 -11 -11 -11 -11 -11 -11 -11 -11 -11 -11 -11 -11 -12 -12 -12 -12 -12 -11
-4 -5 -6 -5 -6 -6 -7 -7 -7 -8 -8 -9 -9 -9 -9 -10 -10 -10 -10 -10 -11 -11 -11 -11 -11 -11 -11 -12 -12 -12 -12 -12 -12 -12 -12 -12 -12 -12 -12 -12 -12 -12 -12 -12
-6 -6 -6 -6 -7 -7 -8 -8 -8 -9 -9 -9 -10 -10 -10 -10 -10 -11 -11 -11 -11 -11 -11 -12 -12 -12 -12 -12 -12 -13 -13 -13 -13 -13 -13 -13 -13 -13 -13 -12 -12 -12 -12 -12
-7 -7 -8 -8 -8 -8 -9 -9 -9 -10 -10 -10 -11 -11 -11 -11 -11 -11 -11 -12 -12 -12 -12 -12 -13 -13 -13 -13 -13 -13 -13 -13 -14 -14 -14 -14 -14 -14 -14 -13 -13 -13 -12 -12
-8 -8 -8 -8 -9 -9 -9 -10 -10 -11 -11 -11 -11 -11 -12 -12 -12 -12 -12 -12 -12 -13 -13 -13 -13 -13 -14 -14 -14 -14 -14 -14 -14 -14 -14 -14 -14 -14 -14 -14 -14 -14 -13 -13
-9 -9 -9 -9 -9 -10 -10 -11 -11 -11 -11 -12 -12 -12 -12 -12 -13 -13 -13 -13 -13 -13 -13 -14 -14 -14 -14 -14 -14 -14 -14 -14 -15 -15 -15 -15 -15 -15 -15 -15 -15 -14 -14 -14
-10 -10 -10 -10 -10 -10 -11 -11 -11 -12 -12 -12 -12 -13 -13 -13 -13 -13 -14 -14 -14 -14 -14 -14 -14 -14 -14 -15 -15 -15 -15 -15 -15 -15 -15 -15 -15 -15 -15 -15 -15 -15 -15 -15
-10 -10 -10 -10 -10 -11 -11 -12 -12 -12 -13 -13 -13 -13 -13 -14 -14 -14 -14 -15 -15 -15 -15 -15 -15 -15 -15 -15 -15 -15 -16 -16 -16 -16 -16 -16 -16 -16 -16 -16 -16 -16 -16 -15
-10 -10 -10 -11 -11 -11 -12 -12 -12 -13 -13 -13 -14 -14 -14 -14 -14 -15 -15 -15 -15 -15 -15 -15 -16 -16 -16 -16 -16 -16 -16 -16 -16 -16 -16 -16 -16 -16 -16 -16 -16 -16 -16 -16
-10 -11 -11 -11 -12 -12 -12 -13 -13 -13 -14 -14 -14 -14 -14 -15 -15 -15 -15 -16 -16 -16 -16 -16 -16 -16 -16 -16 -17 -17 -17 -17 -17 -17 -17 -17 -17 -17 -17 -17 -17 -17 -17 -17
-11 -11 -12 -12 -12 -13 -13 -13 -14 -14 -14 -14 -15 -15 -15 -15 -15 -16 -16 -16 -16 -16 -16 -16 -17 -17 -17 -17 -17 -17 -17 -17 -17 -17 -18 -18 -18 -17 -17 -17 -17 -17 -17 -17
-12 -12 -12 -12 -13 -13 -13 -14 -14 -14 -15 -15 -15 -15 -16 -16 -16 -16 -16 -16 -16 -17 -17 -17 -17 -17 -17 -17 -18 -18 -18 -18 -18 -18 -18 -18 -18 -18 -18 -18 -18 -18 -18 -18
-12 -12 -13 -13 -13 -14 -14 -14 -15 -15 -15 -15 -16 -16 -16 -16 -17 -17 -17 -17 -17 -17 -17 -17 -17 -17 -18 -18 -18 -18 -18 -18 -18 -18 -18 -19 -19 -19 -19 -18 -18 -18 -18 -18
-13 -13 -13 -14 -14 -14 -14 -15 -15 -16 -16 -16 -16 -16 -17 -17 -17 -17 -17 -17 -17 -18 -18 -18 -18 -18 -18 -18 -18 -18 -18 -19 -19 -19 -19 -19 -19 -19 -19 -19 -19 -19 -19 -18
-13 -14 -14 -14 -15 -15 -15 -16 -16 -16 -16 -16 -16 -17 -17 -17 -17 -17 -18 -18 -18 -18 -18 -18 -18 -18 -19 -19 -19 -19 -19 -19 -19 -19 -19 -19 -19 -19 -19 -19 -19 -19 -19 -19
-14 -14 -14 -15 -15 -16 -16 -16 -16 -16 -17 -17 -17 -17 -17 -17 -18 -18 -18 -18 -18 -18 -18 -19 -19 -19 -19 -19 -19 -19 -19 -19 -19 -19 -19 -19 -19 -19 -19 -19 -19 -19 -19 -19
-15 -15 -15 -15 -16 -16 -16 -16 -17 -17 -17 -17 -17 -17 -18 -18 -18 -18 -18 -18 -19 -19 -19 -19 -19 -19 -19 -19 -19 -19 -19 -19 -19 -19 -19 -19 -19 -19 -19 -19 -19 -19 -19 -19
Wind_Speed
13 11 8 10 11 12 14 15 14 16 17 17 12 10 8 6 6 5 5 4 4 4 4 4 4 3 3 3 3 3 3 3 3 3 3 3 3 4 3 4 4 4 5 5
9 8 9 12 15 15 17 17 20 21 21 15 10 8 7 7 6 6 6 5 5 5 5 4 4 4 4 4 3 3 3 4 3 3 3 3 3 3 4 4 4 4 5 5
9 6 8 13 13 15 12 13 12 17 17 10 9 9 9 7 6 7 6 6 6 5 5 5 4 4 4 4 4 3 3 4 3 3 3 3 4 4 4 4 4 5 5 5
6 4 11 6 2 8 12 13 14 13 11 9 9 9 6 6 7 7 6 6 6 5 5 5 4 4 3 3 3 3 4 4 3 3 3 3 4 4 4 4 4 5 5 6
4 8 12 7 3 5 8 10 9 12 12 9 7 6 5 4 5 6 6 6 5 5 4 3 3 3 3 3 3 3 4 4 3 3 4 4 4 5 4 4 5 5 5 6
6 7 9 4 2 2 3 7 4 6 8 6 3 6 4 1 4 5 5 4 3 2 2 2 2 2 2 2 3 4 4 4 4 4 4 5 5 5 4 4 5 5 5 6
11 11 10 2 3 5 5 4 0 4 5 5 6 6 3 3 4 4 3 3 2 1 1 2 2 2 2 3 4 4 4 4 4 4 4 5 5 4 4 4 5 5 5 6
8 10 10 4 6 6 4 2 1 3 4 5 6 4 3 3 3 3 3 2 1 1 2 2 1 2 3 3 4 3 3 3 4 4 4 4 4 4 4 4 5 5 5 6
8 7 1 6 5 3 1 2 3 4 4 5 5 5 4 4 3 3 2 2 2 2 2 2 2 2 3 4 3 3 3 3 3 4 3 4 4 4 4 4 4 4 5 5
6 8 6 5 5 4 4 4 4 4 4 4 5 5 4 3 3 3 2 2 2 2 2 3 3 3 3 3 3 3 3 4 3 3 3 3 3 4 4 4 5 5 5 5
7 7 6 6 7 7 5 4 4 4 3 4 4 4 4 3 3 3 2 2 2 2 3 3 3 3 3 3 3 3 3 3 3 3 4 3 3 4 4 5 5 6 5 5
7 5 5 4 2 3 4 4 4 3 3 3 3 3 3 3 3 2 2 2 2 3 3 4 4 4 4 3 3 3 3 3 3 3 3 3 4 4 6 7 8 9 9 8
5 3 3 3 2 1 2 2 2 3 3 3 2 2 3 3 2 2 2 2 3 4 4 4 4 4 4 3 3 3 4 4 3 3 4 4 4 4 5 5 7 8 9 10
3 2 3 3 2 1 1 1 1 1 1 2 2 2 2 2 2 2 3 3 3 3 4 4 4 5 4 4 4 4 4 5 4 4 4 4 4 5 5 5 5 5 6 9
3 3 3 1 1 1 1 0 0 1 1 1 1 1 2 2 3 3 3 3 3 3 4 4 4 5 4 4 4 4 4 4 4 4 4 4 4 4 4 5 5 5 5 6
2 1 1 2 3 2 2 2 2 3 2 2 2 3 3 3 3 3 3 3 3 4 4 4 5 5 4 4 4 4 4 6 5 4 4 4 4 4 4 5 5 5 5 5
2 3 3 4 4 4 4 4 4 3 3 3 3 4 3 3 3 3 3 3 4 5 5 5 6 5 4 4 4 4 4 4 6 5 4 4 4 4 4 5 5 5 5 5
4 4 4 4 4 4 4 4 4 4 4 4 4 3 3 3 4 4 4 4 4 5 5 5 5 5 4 5 4 4 4 4 4 4 4 4 4 4 4 5 5 6 5 5
3 3 3 3 3 3 4 4 4 4 4 3 3 4 4 4 5 4 4 3 4 5 5 5 6 5 5 5 5 4 4 4 4 4 4 5 5 4 5 5 5 5 5 5
2 2 2 3 2 3 3 3 3 3 3 3 3 3 4 5 4 4 4 5 5 5 5 5 5 5 5 5 6 4 4 4 4 4 4 4 4 4 4 5 5 5 5 5
3 2 2 3 3 3 3 3 3 3 3 3 4 4 5 5 4 4 4 5 5 5 5 7 5 4 5 5 6 4 4 4 4 4 4 4 4 5 5 5 5 5 5 5
3 3 3 3 3 3 3 3 3 4 4 3 4 4 4 5 4 4 5 5 6 6 5 4 4 6 6 6 4 4 4 4 4 4 4 5 5 5 5 5 5 5 5 5
3 3 3 3 3 3 3 3 4 4 4 4 5 5 5 5 4 4 5 4 5 7 5 5 6 8 8 5 4 4 4 5 5 5 5 5 5 5 5 6 5 5 5 5
3 3 3 2 2 3 4 4 4 4 4 5 5 5 5 5 4 5 5 7 7 7 5 6 8 8 7 3 3 4 4 5 5 5 5 5 5 5 5 5 5 5 5 6
3 3 3 3 3 3 4 4 3 4 4 4 5 5 5 4 5 5 4 5 7 7 5 6 8 8 5 4 4 4 5 5 5 5 5 5 5 5 5 5 5 6 6 6
2 3 3 4 4 3 3 3 3 3 3 4 4 4 4 4 5 4 4 5 6 7 6 5 5 6 4 5 5 5 5 6 6 6 6 6 6 6 6 6 7 6 6 7
3 3 3 3 3 3 3 3 4 4 4 4 5 4 4 4 4 4 5 4 4 5 5 5 4 4 5 5 5 5 5 5 6 6 6 6 6 6 6 7 7 7 7 7
Wind_Direction
260 266 255 248 244 228 224 235 248 260 264 270 270 272 273 272 267 259 257 260 263 266 271 278 287 292 293 289 284 260 246 244 251 258 259 259 260 260 260 257 251 252 253 253
264 258 258 259 251 239 237 242 249 262 270 272 278 277 272 267 259 257 258 262 268 270 272 272 280 291 296 295 286 262 247 250 256 257 256 256 257 258 256 258 256 251 250 252
262 274 281 260 240 226 227 228 233 248 259 270 274 271 271 267 254 255 261 265 267 267 267 273 278 285 287 289 291 268 254 254 254 252 252 255 258 258 254 254 256 250 249 252
269 279 253 258 193 215 228 240 233 243 263 273 273 284 284 268 259 262 268 270 271 273 274 275 280 288 291 286 276 263 258 258 258 253 254 256 254 256 258 258 257 258 253 254
239 255 267 265 214 201 220 251 235 238 259 276 300 300 272 251 262 266 274 278 275 272 267 265 267 281 284 282 277 265 261 263 266 259 256 255 252 255 260 260 261 264 263 257
227 244 256 264 154 177 189 253 226 224 251 268 280 275 287 342 300 290 297 297 290 282 271 260 270 271 266 280 282 275 273 272 273 267 259 257 259 262 263 261 262 267 270 264
232 243 259 268 142 161 209 268 275 221 240 233 233 259 307 320 313 309 307 303 295 273 263 273 280 265 265 275 278 285 288 282 277 273 268 264 263 263 262 263 267 267 271 270
216 231 250 143 150 195 248 356 305 273 255 243 249 271 291 298 303 308 307 302 293 277 284 294 277 253 265 276 289 296 293 288 284 281 278 270 265 266 263 261 263 266 269 275
209 228 328 162 194 236 301 267 279 283 281 264 258 263 274 286 287 290 286 281 277 269 283 294 282 260 265 283 298 297 293 292 292 290 282 273 264 262 262 259 259 265 268 275
248 257 255 230 245 262 257 262 278 283 280 259 255 258 261 270 278 281 276 270 262 260 272 288 293 283 279 293 293 288 288 292 292 287 285 280 271 262 260 259 260 264 267 272
249 272 289 259 246 252 258 265 273 282 274 254 246 251 256 264 271 275 276 272 258 255 266 281 291 292 299 300 292 284 285 287 288 284 282 282 278 274 270 266 264 266 268 271
245 245 239 264 293 278 254 258 255 260 282 281 253 247 255 263 269 270 270 268 263 265 272 281 287 290 298 299 288 278 281 284 284 287 286 282 283 287 280 275 282 280 279 281
252 287 270 286 305 298 275 273 267 251 254 269 276 259 254 265 275 277 273 268 265 268 272 278 283 289 297 297 286 273 274 280 282 282 282 283 283 284 291 292 285 285 286 286
259 267 264 258 270 296 296 302 302 296 287 276 274 277 270 274 282 276 277 279 278 276 275 277 280 284 294 294 284 277 276 276 278 279 280 281 282 282 283 288 296 298 295 293
263 254 249 286 341 328 304 220 233 280 302 309 299 283 274 274 277 281 287 288 283 278 278 280 279 286 298 290 280 278 276 273 276 278 277 278 281 282 284 285 287 292 299 303
273 273 241 243 250 255 252 236 245 264 275 280 286 283 279 276 280 285 287 278 271 277 282 283 282 290 295 287 281 277 273 278 281 278 275 277 278 279 281 284 286 288 292 300
200 230 234 250 251 252 249 248 250 257 266 270 274 281 283 282 285 288 289 284 277 277 280 280 284 290 287 280 277 275 276 277 281 280 273 272 274 275 277 280 282 286 288 294
231 239 230 234 239 243 254 255 252 255 260 268 273 272 262 259 268 278 288 293 290 287 285 285 287 288 283 281 277 275 274 274 273 274 275 270 272 274 276 278 280 281 285 291
231 237 239 239 241 235 242 251 254 259 265 263 261 259 258 261 266 274 283 282 280 283 291 291 291 290 283 280 281 270 273 274 276 277 278 280 283 280 278 277 279 281 284 287
240 242 242 251 250 241 248 258 261 264 262 250 252 260 267 270 270 272 272 268 267 277 288 291 289 282 278 277 280 273 270 270 273 277 279 278 280 282 284 285 285 285 284 284
249 248 246 250 260 263 257 257 254 259 264 250 243 251 261 271 271 266 267 276 285 282 280 283 283 279 274 273 273 265 264 267 268 271 274 277 279 280 282 285 285 285 284 284
242 242 250 253 258 273 275 262 253 255 261 258 255 257 264 271 271 266 259 265 282 290 289 281 279 278 278 276 263 259 260 263 266 269 270 272 274 277 281 284 285 285 285 286
247 247 253 254 258 274 283 269 256 250 251 253 254 257 260 264 266 267 277 274 278 284 285 277 281 285 285 279 266 262 264 266 268 267 268 269 271 273 276 279 280 281 283 285
249 250 254 259 252 258 270 275 267 260 257 260 258 255 258 267 270 262 267 280 288 290 287 284 287 290 294 284 274 270 269 269 268 269 269 270 270 270 270 272 274 277 278 280
243 246 244 243 250 257 265 275 276 271 268 270 273 270 262 259 264 275 277 279 284 290 289 288 290 295 296 285 277 273 271 271 270 269 267 268 270 270 270 270 270 273 275 275
244 250 253 251 253 259 262 262 267 272 272 276 281 280 275 270 269 273 276 279 279 284 286 284 286 288 284 279 276 274 273 276 279 277 273 271 271 271 270 269 271 270 272 272
255 256 257 265 264 257 256 256 261 267 267 268 278 281 278 276 275 277 279 280 282 282 282 281 278 275 274 274 273 272 271 270 269 268 268 268 268 269 270 270 270 270 270 269
Height
1493 1492 1494 1492 1492 1495 1495 1486 1481 1470 1469 1466 1469 1470 1471 1470 1470 1469 1468 1468 1467 1466 1466 1465 1464 1463 1463 1462 1461 1461 1460 1460 1460 1460 1460 1459 1459 1459 1460 1460 1460 1460 1461 1461
1494 1493 1493 1490 1486 1486 1486 1484 1479 1474 1469 1465 1468 1468 1468 1467 1467 1466 1465 1464 1463 1463 1462 1461 1460 1459 1459 1458 1457 1457 1456 1456 1456 1455 1455 1455 1455 1454 1454 1454 1455 1455 1455 1455
1485 1490 1490 1476 1472 1476 1477 1476 1475 1469 1463 1463 1465 1465 1464 1464 1463 1462 1461 1460 1460 1459 1458 1457 1456 1455 1454 1454 1453 1453 1452 1452 1452 1451 1451 1450 1450 1449 1449 1449 1449 1449 1449 1449
1487 1488 1478 1461 1469 1469 1470 1468 1468 1466 1463 1463 1463 1462 1461 1460 1460 1458 1458 1457 1456 1455 1454 1453 1453 1452 1451 1450 1450 1449 1448 1448 1447 1447 1446 1445 1445 1445 1444 1444 1444 1444 1443 1443
1486 1478 1463 1461 1466 1468 1468 1462 1462 1463 1461 1461 1460 1459 1457 1456 1456 1455 1455 1453 1452 1451 1450 1449 1448 1448 1447 1446 1446 1445 1444 1443 1443 1442 1441 1441 1440 1440 1440 1439 1439 1438 1438 1437
1483 1475 1460 1453 1464 1465 1467 1459 1458 1459 1458 1459 1460 1456 1453 1453 1452 1452 1451 1450 1448 1447 1446 1445 1444 1444 1443 1442 1442 1441 1440 1439 1439 1438 1437 1437 1436 1435 1435 1435 1434 1433 1432 1432
1477 1470 1456 1461 1464 1465 1461 1452 1456 1455 1455 1456 1456 1455 1453 1451 1450 1448 1447 1446 1445 1444 1443 1442 1441 1440 1439 1438 1438 1437 1436 1435 1434 1434 1433 1432 1432 1431 1430 1430 1429 1428 1427 1427
1472 1467 1456 1462 1463 1461 1454 1454 1454 1453 1453 1453 1452 1451 1449 1448 1447 1445 1444 1443 1442 1440 1439 1439 1438 1437 1436 1435 1434 1433 1432 1431 1430 1430 1429 1428 1427 1426 1426 1425 1424 1423 1422 1421
1462 1457 1456 1457 1455 1455 1454 1453 1453 1452 1451 1450 1448 1447 1446 1445 1443 1442 1441 1440 1439 1438 1437 1436 1435 1434 1433 1432 1431 1430 1429 1427 1426 1426 1425 1424 1423 1422 1421 1420 1419 1418 1417 1416
1461 1455 1454 1454 1452 1452 1451 1451 1450 1449 1448 1447 1445 1444 1443 1441 1440 1439 1438 1437 1436 1435 1434 1433 1432 1431 1430 1429 1428 1426 1425 1424 1423 1421 1420 1419 1418 1418 1416 1415 1414 1413 1413 1412
1457 1453 1452 1449 1449 1448 1448 1447 1446 1445 1444 1443 1442 1440 1439 1438 1437 1436 1435 1434 1433 1432 1430 1430 1429 1428 1427 1426 1424 1423 1422 1420 1419 1418 1416 1415 1414 1413 1412 1411 1410 1409 1408 1408
1448 1448 1448 1446 1445 1445 1444 1443 1442 1441 1440 1439 1438 1437 1436 1435 1434 1433 1432 1431 1430 1429 1427 1426 1426 1425 1423 1422 1421 1420 1418 1417 1415 1414 1413 1411 1410 1409 1407 1407 1406 1405 1404 1403
1446 1444 1444 1443 1442 1441 1441 1440 1439 1438 1437 1436 1435 1434 1433 1432 1431 1430 1429 1428 1427 1425 1424 1423 1422 1421 1420 1419 1418 1416 1415 1413 1412 1411 1409 1408 1406 1405 1403 1402 1401 1399 1399 1398
1442 1442 1441 1439 1439 1438 1438 1437 1436 1435 1434 1433 1432 1431 1430 1429 1428 1427 1426 1425 1423 1422 1421 1419 1418 1417 1417 1415 1414 1413 1411 1410 1409 1407 1406 1405 1403 1401 1400 1398 1396 1394 1394 1393
1438 1438 1438 1437 1436 1435 1435 1434 1433 1432 1431 1430 1429 1428 1427 1426 1425 1424 1423 1422 1420 1419 1418 1416 1415 1414 1413 1412 1410 1409 1408 1406 1405 1404 1402 1401 1400 1398 1396 1394 1393 1391 1389 1388
1435 1435 1434 1434 1433 1432 1431 1430 1429 1428 1428 1427 1426 1425 1424 1423 1422 1421 1420 1419 1417 1416 1414 1413 1412 1411 1410 1408 1407 1405 1404 1403 1402 1400 1399 1397 1396 1394 1393 1391 1389 1387 1386 1385
1432 1431 1431 1430 1430 1429 1428 1428 1427 1426 1425 1424 1423 1422 1421 1420 1419 1418 1417 1415 1414 1413 1411 1410 1408 1407 1406 1404 1403 1401 1400 1398 1397 1396 1395 1394 1392 1391 1389 1388 1386 1384 1382 1381
1429 1429 1429 1428 1427 1425 1425 1424 1424 1423 1422 1421 1420 1419 1418 1417 1415 1414 1413 1412 1410 1409 1408 1406 1405 1403 1402 1400 1399 1397 1396 1395 1393 1392 1391 1390 1388 1387 1385 1384 1382 1381 1379 1378
1426 1426 1425 1425 1424 1423 1422 1421 1420 1420 1419 1418 1417 1416 1415 1414 1412 1411 1410 1408 1406 1405 1403 1402 1401 1399 1398 1397 1395 1394 1392 1391 1389 1388 1387 1386 1384 1383 1381 1380 1378 1377 1375 1374
1423 1423 1422 1421 1421 1420 1419 1418 1417 1417 1416 1415 1413 1412 1411 1410 1409 1407 1406 1404 1403 1401 1400 1398 1397 1396 1394 1393 1392 1390 1389 1387 1386 1384 1383 1382 1380 1379 1377 1376 1375 1373 1372 1371
1420 1420 1419 1418 1418 1417 1416 1415 1414 1413 1412 1411 1410 1409 1408 1406 1405 1404 1402 1400 1399 1398 1396 1395 1393 1392 1391 1389 1388 1386 1385 1383 1382 1381 1379 1378 1376 1375 1374 1372 1371 1370 1369 1367
1418 1417 1416 1415 1414 1414 1413 1412 1411 1410 1409 1408 1407 1405 1404 1403 1401 1400 1398 1397 1396 1394 1393 1391 1390 1388 1387 1386 1384 1383 1381 1380 1378 1377 1375 1374 1373 1372 1370 1369 1368 1367 1365 1364
1415 1414 1413 1412 1411 1410 1410 1409 1408 1406 1405 1404 1403 1402 1400 1399 1398 1396 1394 1393 1392 1391 1389 1388 1386 1385 1384 1382 1380 1379 1377 1376 1374 1373 1372 1370 1369 1368 1367 1365 1364 1363 1361 1360
1412 1411 1410 1409 1408 1407 1406 1405 1404 1403 1402 1401 1399 1398 1397 1395 1394 1392 1391 1390 1388 1387 1386 1384 1383 1381 1380 1378 1376 1375 1373 1371 1370 1369 1368 1366 1365 1364 1363 1361 1360 1359 1358 1356
1409 1408 1407 1406 1405 1404 1403 1402 1400 1399 1398 1397 1395 1394 1393 1391 1390 1388 1387 1385 1384 1383 1381 1380 1379 1377 1376 1374 1372 1371 1369 1368 1366 1365 1363 1362 1361 1360 1358 1357 1356 1355 1353 1352
1405 1404 1404 1403 1402 1401 1399 1398 1397 1395 1394 1392 1391 1390 1389 1387 1386 1384 1383 1381 1380 1379 1377 1376 1374 1373 1371 1370 1368 1367 1365 1364 1362 1361 1360 1358 1357 1356 1354 1353 1352 1351 1349 1348
1402 1401 1400 1399 1398 1397 1396 1394 1393 1392 1390 1389 1387 1386 1385 1383 1382 1380 1379 1377 1376 1374 1373 1371 1370 1369 1367 1365 1364 1362 1361 1359 1358 1357 1355 1354 1352 1351 1350 1349 1347 1346 1345 1344